Date,TemperatureHighF,TemperatureAvgF,TemperatureLowF,DewpointHighF,DewpointAvgF,DewpointLowF,HumidityHigh,HumidityAvg,HumidityLow,PressureMaxIn,PressureMinIn,WindSpeedMaxMPH,WindSpeedAvgMPH,GustSpeedMaxMPH,PrecipitationSumIn
2013-1-1,35.1,31.4,27.0,21.1,18.9,17.5,70,60,50,29.75,29.17,4,0,7,0.00
2013-1-2,28.0,21.4,17.6,19.1,16.9,14.4,90,83,67,29.58,29.19,4,0,5,0.00
2013-1-3,28.2,24.4,17.2,18.0,15.4,11.2,79,68,62,29.68,29.58,2,0,4,0.00
2013-1-4,23.9,17.4,12.6,13.2,9.9,6.7,81,72,59,29.88,29.66,2,0,2,0.00
2013-1-5,16.0,13.1,8.6,12.3,9.1,5.3,89,84,76,29.88,29.44,2,0,2,0.00
2013-1-6,18.1,12.3,7.9,12.0,8.1,4.8,89,83,73,29.45,29.29,1,0,2,0.00
2013-1-7,11.5,6.4,0.3,8.9,3.6,-2.8,90,87,85,29.56,29.21,2,0,2,0.00
2013-1-8,0.1,-3.7,-6.9,-2.7,-6.8,-9.8,86,83,82,30.17,29.56,1,0,2,0.00
2013-1-9,1.4,-3.1,-5.8,-1.8,-6.2,-8.9,85,83,82,30.25,29.97,0,0,0,0.00
2013-1-10,11.5,7.3,-0.6,8.9,4.3,-3.8,89,87,84,30.13,29.94,0,0,0,0.00
2013-1-11,14.5,11.8,6.6,12.2,9.3,3.8,90,89,87,30.24,29.91,0,0,0,0.00
2013-1-12,27.5,19.1,13.1,26.1,17.3,10.7,95,92,90,30.23,29.74,0,0,0,0.00
2013-1-13,32.7,30.4,27.5,30.0,26.6,23.6,95,86,75,29.77,29.55,0,0,0,0.01
2013-1-14,34.9,32.6,27.7,27.5,25.3,17.1,77,74,64,29.88,29.25,1,0,3,0.30
2013-1-15,27.3,13.2,8.4,18.1,9.6,5.6,91,85,64,30.27,29.88,0,0,0,0.00
2013-1-16,12.9,7.8,3.9,9.6,5.0,1.1,90,88,85,30.29,29.89,0,0,0,0.00
2013-1-17,2.7,-5.3,-12.8,-2.5,-9.7,-15.9,80,77,73,30.27,29.94,0,0,0,0.00
2013-1-18,-3.6,-10.9,-14.8,-9.0,-14.4,-17.5,80,77,70,30.51,30.27,0,0,0,0.00
2013-1-19,8.6,3.3,-9.4,-2.6,-6.3,-13.9,75,62,53,30.52,30.16,0,0,0,0.00
2013-1-20,10.8,7.1,1.2,6.9,2.5,-5.9,87,81,65,30.17,30.08,0,0,0,0.00
2013-1-21,8.2,5.2,-1.5,5.4,1.6,-4.6,88,84,78,30.21,30.09,0,0,0,0.00
2013-1-22,7.9,4.2,-1.5,3.3,0.1,-4.6,87,82,79,30.10,29.80,0,0,0,0.00
2013-1-23,6.4,4.3,0.7,1.3,-1.9,-7.2,82,74,66,29.81,29.68,0,0,0,0.00
2013-1-24,0.7,-5.5,-12.1,-6.9,-13.5,-18.7,67,62,58,29.93,29.74,0,0,0,0.00
2013-1-25,-12.1,-21.8,-29.4,-18.2,-25.4,-32.2,74,71,65,30.13,29.93,0,0,0,0.00
2013-1-26,-23.3,-29.0,-31.7,-26.4,-32.0,-34.7,72,69,68,30.27,30.13,0,0,0,0.38
2013-1-27,-31.5,-36.8,-39.5,-34.5,-39.0,-39.9,68,65,63,30.73,30.27,0,0,0,0.00
2013-1-28,-6.9,-27.4,-39.3,-10.7,-30.4,-39.9,79,69,63,30.75,30.14,0,0,0,0.00
2013-1-29,-3.6,-8.2,-12.1,-12.0,-15.3,-18.4,74,64,52,30.13,29.97,0,0,0,0.00
2013-1-30,8.4,0.1,-7.8,3.0,-4.6,-12.0,81,78,72,30.03,29.74,0,0,0,0.00
2013-1-31,11.7,7.5,4.8,7.1,3.4,0.0,86,83,80,30.17,29.77,0,0,0,0.00
2013-2-1,8.8,3.5,-3.6,5.7,0.5,-6.7,87,86,83,30.24,29.95,0,0,0,0.00
2013-2-2,18.3,10.1,4.1,11.8,5.9,0.9,87,83,74,29.95,29.58,0,0,0,0.00
2013-2-3,11.5,7.6,4.3,7.7,4.0,1.0,87,85,81,29.59,29.38,0,0,0,0.00
2013-2-4,16.0,10.3,7.2,12.0,7.1,3.6,90,87,84,29.70,29.54,0,0,0,0.00
2013-2-5,7.9,2.8,-2.0,5.1,-0.4,-4.9,89,85,84,29.73,29.66,0,0,0,0.00
2013-2-6,5.9,1.4,-1.3,2.1,-2.0,-4.4,86,84,81,29.79,29.65,0,0,0,0.00
2013-2-7,8.6,0.9,-5.8,5.8,-2.3,-8.6,88,84,82,29.77,29.35,0,0,0,0.00
2013-2-8,7.2,2.6,-1.7,4.1,-1.0,-5.0,87,84,79,29.88,29.39,0,0,0,0.00
2013-2-9,30.4,19.3,1.2,23.8,15.2,-2.0,93,84,72,29.88,29.07,2,0,4,0.02
2013-2-10,36.3,22.2,8.8,29.3,18.1,5.7,90,84,72,29.55,28.99,2,0,4,0.00
2013-2-11,21.4,14.8,5.2,17.0,11.9,2.7,91,88,81,29.79,29.55,1,0,2,0.00
2013-2-12,14.2,5.4,-1.8,11.3,2.5,-4.7,90,87,84,29.86,29.78,0,0,0,0.00
2013-2-13,19.6,10.2,2.7,17.4,7.6,-0.3,93,89,86,29.86,29.79,0,0,0,0.00
2013-2-14,28.2,21.8,14.5,16.3,13.9,12.1,92,72,53,29.80,29.37,0,0,1,0.00
2013-2-15,21.2,8.2,-3.8,16.0,3.6,-7.1,85,81,73,30.13,29.48,4,0,7,0.00
2013-2-16,3.2,-5.8,-11.2,-2.8,-9.3,-14.1,83,80,74,30.20,29.97,1,0,3,0.00
2013-2-17,-3.1,-6.4,-10.1,-6.5,-10.1,-13.1,82,79,73,30.24,29.89,1,0,3,0.00
2013-2-18,-8.9,-17.2,-24.7,-12.7,-20.3,-27.4,78,76,71,30.36,30.24,0,0,0,0.00
2013-2-19,-1.3,-15.6,-26.0,-7.7,-19.3,-28.7,79,74,68,30.25,29.67,0,0,0,0.00
2013-2-20,6.3,-4.2,-12.5,-3.4,-9.8,-16.1,81,73,61,29.66,29.44,2,0,4,0.00
2013-2-21,1.6,-2.9,-5.6,-5.3,-7.8,-9.9,81,76,64,29.51,29.40,2,0,5,0.00
2013-2-22,-2.6,-8.6,-18.0,-9.1,-12.9,-21.2,80,75,68,29.70,29.45,1,0,3,0.00
2013-2-23,4.6,-6.4,-17.5,-2.9,-10.9,-20.5,81,76,68,29.62,29.37,2,0,3,0.00
2013-2-24,7.5,-4.1,-8.5,-1.2,-8.8,-11.7,82,76,60,29.77,29.41,2,0,2,0.00
2013-2-25,25.3,4.6,-8.7,15.2,-0.1,-12.3,88,79,62,29.82,29.74,1,0,2,0.00
2013-2-26,28.4,13.7,4.1,15.1,6.9,0.9,89,75,53,29.83,29.51,2,0,3,0.00
2013-2-27,34.7,20.3,10.4,14.9,9.6,4.6,78,64,42,29.52,29.33,3,0,8,0.00
2013-2-28,34.5,18.9,9.5,16.2,9.5,4.6,83,68,42,29.53,29.38,1,0,2,0.00
2013-3-1,14.2,9.1,5.0,7.7,4.2,-0.1,87,80,74,30.06,29.53,2,0,3,0.00
2013-3-2,24.8,8.0,-0.9,15.6,3.7,-3.9,88,82,63,30.22,30.05,1,0,2,0.00
2013-3-3,28.0,9.9,-1.3,18.5,5.7,-4.4,90,83,65,30.47,30.22,0,0,2,0.00
2013-3-4,36.0,15.6,5.2,22.1,9.8,2.2,90,79,49,30.52,30.32,0,0,2,0.00
2013-3-5,37.6,20.5,11.3,17.9,11.3,6.2,83,69,42,30.32,29.97,1,0,3,0.00
2013-3-6,23.2,11.9,5.9,10.1,4.4,0.8,82,72,54,29.98,29.91,2,0,4,0.00
2013-3-7,41.0,24.6,5.7,19.4,12.9,1.4,86,64,39,29.92,29.41,4,0,8,0.01
2013-3-8,46.0,34.1,24.1,24.0,20.2,15.9,77,58,38,29.65,29.48,2,0,6,0.08
2013-3-9,41.0,28.0,18.9,25.4,19.5,13.1,87,71,52,30.03,29.64,3,0,5,0.02
2013-3-10,31.5,21.7,10.4,24.2,15.5,5.5,90,77,57,30.35,30.03,2,0,7,0.00
2013-3-11,27.9,14.2,5.0,16.8,7.6,1.7,89,76,54,30.63,30.35,2,0,5,0.00
2013-3-12,29.5,11.7,0.7,9.4,0.4,-7.5,84,62,31,30.65,30.41,2,0,4,0.00
2013-3-13,18.1,4.3,-4.5,-2.6,-9.2,-17.8,69,52,29,30.40,30.29,7,1,14,0.02
2013-3-14,19.8,3.5,-8.7,-5.3,-13.3,-20.2,51,42,28,30.32,30.18,4,2,13,0.00
2013-3-15,26.4,10.8,2.3,-5.8,-11.0,-14.1,47,35,16,30.23,29.96,4,1,12,0.00
2013-3-16,30.7,12.9,-2.0,0.5,-5.5,-12.1,60,43,25,30.24,30.04,2,0,6,0.00
2013-3-17,22.3,7.1,-1.7,0.6,-3.8,-7.4,77,61,36,30.36,30.19,2,0,4,0.00
2013-3-18,25.5,6.3,-2.2,2.3,-4.1,-8.0,78,62,33,30.20,30.02,3,0,4,0.00
2013-3-19,23.0,6.1,-5.6,0.6,-7.2,-12.8,73,54,29,30.20,30.09,2,0,4,0.00
2013-3-20,16.7,1.0,-9.4,-2.0,-8.9,-15.3,71,60,41,30.11,29.94,3,0,6,0.00
2013-3-21,24.4,9.1,-1.5,10.1,1.0,-5.4,83,70,48,30.15,30.03,2,0,6,0.53
2013-3-22,32.9,20.8,10.4,11.5,4.5,-1.6,58,49,34,30.06,29.69,4,0,8,0.00
2013-3-23,22.1,3.7,-10.1,14.0,-6.4,-15.5,82,61,32,30.13,29.73,4,1,8,0.00
2013-3-24,15.4,0.2,-12.3,2.2,-7.3,-16.9,82,68,40,30.12,29.80,2,0,4,0.00
2013-3-25,11.3,4.7,0.3,2.7,-1.3,-5.4,83,75,64,29.82,29.66,3,0,4,0.00
2013-3-26,8.2,-0.1,-5.6,-5.4,-9.3,-12.7,77,62,42,30.19,29.82,8,1,14,0.00
2013-3-27,19.0,3.3,-16.8,-4.1,-9.9,-20.1,76,52,31,30.34,30.18,3,0,6,0.00
2013-3-28,40.8,11.7,-9.4,9.9,-2.2,-12.8,81,57,22,30.19,29.91,2,0,4,0.03
2013-3-29,54.3,27.4,10.9,17.1,10.8,3.7,75,53,20,29.93,29.82,2,0,4,0.03
2013-3-30,48.4,27.4,13.3,17.6,12.4,6.7,80,55,27,30.22,29.93,2,0,4,0.00
2013-3-31,43.2,32.0,22.1,28.1,21.1,14.0,84,65,51,30.27,30.16,2,0,4,0.00
2013-4-1,43.3,30.5,22.6,26.8,21.9,14.0,93,72,42,30.16,30.05,5,0,10,0.02
2013-4-2,41.2,25.3,11.5,18.0,12.8,6.0,81,61,36,30.24,30.11,2,0,4,0.00
2013-4-3,37.8,22.6,12.7,10.8,4.9,-3.1,71,49,23,30.52,30.24,4,1,8,0.00
2013-4-4,34.7,20.1,10.2,-0.9,-3.4,-7.6,51,37,16,30.53,30.13,4,1,10,0.00
2013-4-5,14.5,8.5,-1.1,-0.4,-6.4,-11.4,57,48,41,30.13,29.81,4,1,7,0.00
2013-4-6,23.7,8.0,-2.9,-2.3,-8.2,-12.6,60,46,28,29.81,29.61,4,1,10,0.00
2013-4-7,10.4,5.9,-0.2,2.7,-1.7,-7.7,83,70,50,29.96,29.67,3,0,5,0.00
2013-4-8,18.1,3.6,-10.7,7.7,-1.5,-14.0,84,77,60,30.00,29.50,2,0,4,0.00
2013-4-9,13.5,7.7,5.7,5.2,3.1,2.0,84,81,69,29.50,29.19,2,0,2,0.00
2013-4-10,21.0,8.7,0.9,3.6,-2.5,-7.5,78,60,38,30.01,29.63,4,0,9,0.00
2013-4-11,18.5,4.4,-10.1,-0.2,-6.5,-14.0,79,60,36,30.29,30.01,2,0,5,0.00
2013-4-12,33.3,10.9,-5.8,5.6,-2.2,-9.5,82,58,27,30.40,30.29,3,0,6,0.00
2013-4-13,34.9,14.9,-1.3,3.5,-1.4,-6.5,78,51,23,30.52,30.40,3,0,6,0.00
2013-4-14,30.0,18.8,7.0,18.3,7.8,-2.7,81,62,48,30.60,30.52,2,0,5,0.00
2013-4-15,35.4,24.1,16.2,14.4,6.9,2.9,80,50,26,30.57,30.49,4,1,9,0.01
2013-4-16,33.6,22.2,12.7,14.7,6.6,1.5,70,51,32,30.49,30.28,4,1,7,0.00
2013-4-17,36.0,23.6,10.4,11.3,6.9,2.9,72,50,29,30.42,30.29,4,1,10,0.01
2013-4-18,41.5,24.1,9.9,9.2,3.5,-1.3,61,43,24,30.48,30.38,4,1,8,0.00
2013-4-19,49.6,31.4,12.4,12.1,4.5,-9.8,65,36,10,30.52,30.41,3,0,5,0.01
2013-4-20,54.5,29.0,16.2,12.3,7.4,-1.8,63,43,10,30.45,30.27,24,0,10,0.21
2013-4-21,52.3,34.1,18.0,15.2,9.5,-3.3,68,40,11,30.41,30.32,2,0,6,0.22
2013-4-22,54.1,35.3,19.4,16.3,11.5,6.7,65,41,15,30.51,30.39,4,0,8,0.00
2013-4-23,52.9,36.6,22.6,20.8,14.6,8.4,69,44,17,30.44,30.23,4,1,8,0.00
2013-4-24,38.8,34.1,28.0,31.7,25.9,17.7,93,73,56,30.15,29.99,27,1,27,0.12
2013-4-25,39.9,27.5,15.8,18.8,2.6,-5.2,63,36,19,30.15,30.02,4,1,8,0.00
2013-4-26,36.7,23.0,9.5,22.4,10.6,0.3,89,60,36,30.05,29.63,3,0,5,0.00
2013-4-27,35.6,25.0,16.2,20.3,6.2,-11.1,92,51,16,30.19,29.70,5,1,11,0.01
2013-4-28,42.3,24.1,5.4,14.7,2.8,-6.1,62,41,21,30.24,30.10,4,0,49,0.34
2013-4-29,29.7,28.8,23.0,14.5,12.3,11.9,69,50,47,30.16,30.14,0,0,2,0.00
2013-4-30,27.1,26.1,25.3,24.9,23.7,22.6,91,90,89,29.91,29.90,0,0,0,0.00
2013-5-1,39.6,28.5,20.7,25.7,20.3,10.1,92,73,49,29.91,29.68,4,1,8,0.10
2013-5-2,46.0,30.1,18.1,21.2,16.1,9.7,77,57,33,29.95,29.75,4,0,8,0.00
2013-5-3,40.5,32.3,25.7,30.0,25.1,18.8,92,75,63,29.98,29.85,4,1,7,0.00
2013-5-4,39.7,28.4,18.3,23.3,19.6,13.3,91,71,44,30.02,29.90,3,0,5,0.03
2013-5-5,46.9,33.3,20.5,18.9,12.1,6.1,80,46,20,30.15,30.02,98,1,98,0.60
2013-5-6,50.5,33.7,18.1,16.7,11.1,2.0,69,43,14,30.22,30.14,7,1,10,0.00
2013-5-7,51.6,38.0,22.5,21.5,15.1,6.2,71,43,16,30.29,30.20,6,1,9,0.00
2013-5-8,55.9,40.5,24.3,22.4,17.2,9.5,73,43,16,30.36,30.26,6,1,12,0.00
2013-5-9,65.8,46.0,26.6,25.8,18.9,8.8,81,42,11,30.41,30.19,4,0,7,0.00
2013-5-10,63.5,50.2,36.9,27.0,21.7,14.1,62,36,16,30.25,29.96,2,0,5,0.00
2013-5-11,64.4,49.7,36.5,28.9,24.6,19.2,66,41,19,29.97,29.66,3,0,5,0.00
2013-5-12,57.6,46.8,37.2,31.8,27.6,22.3,65,49,27,29.68,29.45,4,1,9,0.00
2013-5-13,39.6,30.8,22.8,25.6,5.8,-0.5,63,35,23,29.69,29.52,25,1,50,0.00
2013-5-14,48.4,34.9,23.0,14.6,10.4,5.8,66,37,23,29.70,29.60,73,1,73,1.51
2013-5-15,53.6,39.9,20.5,19.6,14.8,8.4,75,39,20,29.72,29.61,5,1,10,0.00
2013-5-16,55.2,43.6,28.8,28.2,21.7,14.3,67,44,20,29.69,29.41,5,1,11,0.00
2013-5-17,41.9,35.5,26.4,33.8,29.0,23.4,88,78,57,29.68,29.39,3,0,7,0.03
2013-5-18,37.6,28.5,21.6,23.2,9.6,2.1,88,48,23,30.21,29.68,4,1,11,0.04
2013-5-19,50.5,36.7,20.8,14.3,8.4,2.7,54,33,18,30.59,30.21,4,1,8,0.00
2013-5-20,60.4,45.1,27.5,19.5,13.0,4.3,65,32,11,30.67,30.42,4,1,8,0.00
2013-5-21,67.6,50.9,30.9,21.6,14.1,4.6,61,29,10,30.48,30.13,4,1,8,0.00
2013-5-22,72.9,56.2,37.0,27.4,22.3,13.6,57,30,11,30.15,29.92,4,1,8,0.00
2013-5-23,70.0,54.1,37.9,45.2,33.8,25.8,65,47,27,30.11,30.00,3,0,6,0.00
2013-5-24,73.9,59.2,38.8,43.4,37.4,32.7,84,49,22,30.16,29.96,4,1,9,0.00
2013-5-25,81.9,66.0,47.5,35.7,27.9,17.4,55,28,10,29.99,29.77,4,1,8,0.00
2013-5-26,84.0,67.8,45.9,36.3,30.5,23.2,56,29,11,29.88,29.73,4,1,8,0.00
2013-5-27,87.3,70.4,51.8,42.7,38.1,34.7,63,34,16,29.87,29.72,4,1,8,0.00
2013-5-28,87.8,70.1,50.5,42.4,38.0,32.4,64,35,15,29.79,29.64,4,0,9,0.00
2013-5-29,86.4,72.6,54.7,43.0,32.9,20.8,57,28,10,29.69,29.60,6,1,11,0.00
2013-5-30,90.1,72.3,53.2,44.6,36.5,22.0,60,31,10,29.83,29.68,7,1,10,0.00
2013-5-31,86.9,70.8,54.5,55.6,41.4,21.2,93,42,10,29.96,29.82,4,1,9,0.13
2013-6-1,82.8,69.0,50.9,43.1,38.2,32.1,65,34,18,30.05,29.95,8,1,12,0.00
2013-6-2,79.2,61.7,50.0,48.8,43.2,38.4,77,54,25,30.05,29.83,3,1,6,0.00
2013-6-3,68.5,59.1,52.2,52.4,49.7,47.1,93,72,52,29.91,29.64,4,1,10,0.02
2013-6-4,63.0,54.9,49.5,52.1,49.4,46.7,99,83,58,29.64,29.52,4,0,9,0.31
2013-6-5,56.7,51.9,49.6,53.8,50.7,48.5,99,96,85,29.82,29.59,4,1,7,0.30
2013-6-6,69.3,58.3,54.7,53.8,51.7,44.2,97,81,45,29.82,29.75,4,1,7,0.03
2013-6-7,73.0,63.1,61.9,50.3,48.0,47.1,60,58,41,29.85,29.76,2,2,4,0.00
2013-6-13,75.4,71.9,65.8,33.0,24.9,17.2,29,18,11,30.08,30.03,3,1,8,0.00
2013-6-14,87.6,70.5,47.7,45.2,33.2,16.1,73,32,10,30.15,30.08,4,1,8,0.00
2013-6-15,87.3,70.6,52.3,45.7,39.8,29.7,56,35,16,30.24,30.11,2,0,5,0.01
2013-6-16,92.1,76.8,60.4,54.1,49.8,44.4,66,41,23,30.23,30.11,4,1,9,0.08
2013-6-17,87.8,76.8,64.4,55.1,36.0,20.6,68,29,10,30.21,30.07,8,2,15,0.01
2013-6-18,90.9,76.1,60.1,43.0,36.5,26.6,46,26,10,30.11,29.84,5,2,11,0.00
2013-6-19,91.2,77.8,63.0,45.2,37.9,25.8,50,26,10,29.91,29.75,5,1,13,0.00
2013-6-20,91.6,75.7,60.1,49.0,40.7,23.6,59,32,10,29.91,29.75,4,0,6,0.07
2013-6-21,76.6,66.0,59.2,58.6,50.5,40.3,89,59,31,29.91,29.76,3,0,6,0.03
2013-6-22,81.5,65.8,48.7,49.4,42.6,35.7,81,48,20,29.90,29.68,4,0,7,0.00
2013-6-23,87.8,70.4,48.9,48.7,42.1,24.0,77,42,10,29.72,29.54,6,1,11,0.00
2013-6-24,92.1,75.8,59.4,50.6,44.3,32.6,66,36,13,29.64,29.54,6,1,11,0.01
2013-6-25,95.4,80.1,65.8,55.6,49.8,41.0,62,38,18,29.65,29.56,6,1,15,0.00
2013-6-26,97.7,80.9,64.4,54.2,50.6,43.1,64,38,17,29.69,29.59,4,1,7,0.00
2013-6-27,86.2,74.1,65.1,62.2,57.4,51.5,80,57,38,29.96,29.68,3,0,8,0.00
2013-6-28,85.5,73.2,62.4,58.6,54.2,48.4,76,54,29,30.02,29.95,4,0,6,0.00
2013-6-29,82.0,70.2,59.2,59.7,55.8,51.3,85,62,36,30.00,29.87,3,0,5,0.00
2013-6-30,88.9,72.0,54.7,58.9,53.0,44.1,84,54,28,29.90,29.59,4,0,10,0.00
2013-7-1,82.8,68.4,56.3,53.5,48.3,43.5,84,51,29,29.64,29.41,4,1,8,0.00
2013-7-2,56.8,53.1,49.5,49.9,45.8,41.8,87,77,62,29.57,29.52,2,0,4,0.01
2013-7-3,72.5,58.6,49.1,46.9,43.1,39.8,82,59,33,29.91,29.72,4,0,8,0.00
2013-7-4,70.3,51.3,18.5,47.2,43.1,4.7,85,74,33,30.49,29.84,3,0,5,0.00
2013-7-5,73.0,53.9,45.0,50.5,44.6,39.6,96,75,33,30.06,29.93,2,0,4,0.08
2013-7-6,81.3,61.5,44.6,48.8,43.3,38.9,87,56,23,29.97,29.72,4,0,7,0.01
2013-7-7,77.2,63.8,49.8,48.9,44.2,38.1,76,51,27,29.73,29.48,4,1,9,0.00
2013-7-8,66.6,56.3,47.7,55.3,49.4,44.0,94,79,54,29.70,29.53,2,0,4,0.14
2013-7-9,68.5,57.3,49.6,52.7,49.1,45.9,97,76,48,29.99,29.70,3,1,7,0.01
2013-7-10,60.1,54.2,50.7,51.3,48.9,46.7,95,83,66,30.05,29.97,3,0,5,0.15
2013-7-11,71.6,60.0,50.5,51.9,49.2,45.6,96,70,43,30.08,30.02,5,1,11,0.00
2013-7-12,83.5,67.7,51.8,47.1,39.2,25.5,74,42,12,30.07,29.91,6,1,9,0.00
2013-7-13,90.0,72.2,52.7,47.3,38.8,27.0,67,35,11,30.02,29.92,3,1,5,0.00
2013-7-14,92.7,73.9,55.0,54.6,45.4,35.2,69,41,14,30.10,29.98,4,0,7,0.00
2013-7-15,87.1,72.5,60.8,55.0,50.5,46.8,73,48,28,30.15,30.07,4,0,8,0.01
2013-7-16,68.5,62.7,-3.3,59.4,51.0,-9.3,87,66,57,30.28,30.09,97,3,97,0.31
2013-7-17,75.4,62.2,35.2,53.6,47.3,-6.9,84,61,15,30.14,30.02,4,0,7,0.00
2013-7-18,74.3,63.8,56.7,56.7,51.0,46.8,97,66,39,30.14,30.02,2,0,6,0.00
2013-7-19,63.5,58.3,55.4,59.6,55.9,51.9,98,92,83,30.11,30.06,4,1,6,0.02
2013-7-20,65.8,55.9,53.1,54.6,51.7,50.9,94,86,64,30.11,30.07,4,1,8,0.00
2013-7-22,79.0,66.6,17.4,54.1,50.2,16.5,97,59,35,30.29,30.08,3,0,6,0.00
2013-7-23,84.0,68.0,55.0,56.0,52.8,49.9,86,61,33,30.13,29.99,4,0,7,0.00
2013-7-24,80.1,66.3,55.8,60.8,55.8,51.5,87,70,45,30.04,29.93,4,0,7,0.00
2013-7-25,79.7,67.0,58.6,57.0,49.1,40.2,81,56,28,30.06,29.96,4,0,7,0.00
2013-7-26,62.4,56.0,50.2,48.4,47.2,45.4,86,73,58,30.12,30.06,1,0,2,0.00
2013-7-31,84.2,74.7,65.3,49.9,48.3,45.6,56,40,26,30.02,29.99,2,0,4,0.00
2013-8-1,89.8,71.1,53.2,55.6,48.6,41.1,83,51,19,30.05,29.79,4,0,7,0.00
2013-8-2,70.3,64.0,61.2,50.7,48.6,47.2,63,57,45,29.83,29.79,2,0,4,0.00
2013-8-4,81.1,68.4,55.0,53.0,45.6,40.0,73,46,24,29.90,29.78,3,0,7,0.01
2013-8-5,81.0,63.9,48.7,55.2,46.9,38.9,94,60,23,29.94,29.82,4,0,8,0.00
2013-8-6,82.8,67.0,50.7,48.3,43.1,33.5,79,47,18,29.96,29.77,4,1,10,0.00
2013-8-7,90.0,66.8,51.4,50.3,43.9,32.5,74,49,13,29.82,29.58,6,0,11,0.00
2013-8-8,86.2,69.1,52.9,50.0,42.2,33.0,78,44,15,29.68,29.57,4,1,8,0.00
2013-8-9,77.5,63.7,50.9,52.2,45.3,41.5,84,53,33,29.69,29.61,2,0,4,0.00
2013-8-10,70.9,59.8,51.6,54.6,49.4,44.6,89,70,46,29.99,29.68,3,0,4,0.01
2013-8-11,79.3,61.6,45.9,52.2,47.5,43.0,94,64,30,30.07,29.91,4,0,8,0.00
2013-8-12,82.2,65.2,54.9,58.0,53.6,48.6,88,68,41,30.05,29.94,3,0,6,0.01
2013-8-13,84.4,66.4,52.0,59.7,55.4,50.0,95,71,39,29.99,29.79,3,0,5,0.00
2013-8-14,71.2,62.9,54.5,56.3,54.0,49.8,90,74,55,29.89,29.81,3,0,8,0.00
2013-8-15,67.8,57.2,48.4,59.3,53.2,47.0,96,87,66,29.87,29.68,4,0,7,0.01
2013-8-16,71.6,59.5,51.6,58.4,54.0,25.9,99,84,32,29.71,29.60,4,0,8,0.00
2013-8-17,72.0,60.1,45.3,56.6,50.6,44.8,99,74,47,29.64,29.48,2,1,6,0.00
2013-8-18,74.7,62.6,53.8,56.8,52.0,48.1,88,69,44,29.55,29.48,2,0,4,0.00
2013-8-19,76.6,56.6,5.0,64.9,48.4,-0.1,96,76,35,29.70,29.54,2,0,50,0.36
2013-8-20,57.9,51.3,47.8,51.9,49.8,45.9,99,95,77,29.77,29.64,3,0,7,0.36
2013-8-21,70.0,52.8,44.4,52.1,45.0,39.0,99,78,36,29.81,29.69,3,0,7,0.00
2013-8-22,68.2,53.8,39.2,51.1,44.9,37.8,97,75,47,29.73,29.56,4,0,8,0.01
2013-8-23,57.2,52.5,46.0,53.8,50.8,44.1,99,94,86,29.70,29.50,24,0,24,0.99
2013-8-24,61.5,49.2,41.2,44.2,39.1,33.8,96,71,38,29.95,29.70,6,1,11,0.01
2013-8-25,68.0,46.8,29.8,38.0,32.7,28.1,96,64,25,29.96,29.73,3,0,7,0.00
2013-8-26,68.7,50.7,36.3,37.6,32.7,28.7,78,54,23,29.85,29.74,5,1,11,0.00
2013-8-27,72.0,51.0,37.4,46.3,38.3,31.5,84,64,33,29.83,29.64,2,0,4,0.00
2013-8-28,61.5,52.0,47.3,48.1,45.2,41.3,95,79,50,29.72,29.64,2,0,7,0.03
2013-8-29,54.9,49.0,43.7,50.3,46.7,42.0,97,92,83,29.85,29.66,2,0,5,0.17
2013-8-30,59.9,50.4,44.2,53.4,44.6,37.8,99,82,48,29.98,29.85,3,0,7,0.06
2013-8-31,50.0,42.1,34.7,37.6,31.3,28.8,87,66,45,30.00,29.91,2,1,4,0.00
2013-9-1,52.0,42.4,31.6,42.6,35.0,28.0,92,76,54,29.93,29.67,3,0,5,0.02
2013-9-2,135.5,50.2,43.2,99.9,49.0,41.4,99,96,89,29.67,29.36,97,1,49,0.38
2013-9-3,68.9,55.6,46.9,55.0,50.3,46.7,99,84,49,29.41,29.16,5,0,11,0.10
2013-9-4,63.9,50.1,42.4,54.7,47.4,41.9,99,91,64,29.67,29.33,4,0,6,0.08
2013-9-5,71.6,49.6,39.9,58.3,44.0,38.5,98,82,60,29.97,29.66,3,0,49,0.00
2013-9-6,53.2,45.4,35.8,47.2,42.8,35.2,99,91,74,30.01,29.46,4,0,13,0.64
2013-9-7,55.4,49.6,43.5,52.5,48.0,17.9,99,95,35,29.66,29.47,2,0,3,0.70
2013-9-8,53.6,50.7,42.8,52.5,49.3,41.7,99,95,92,29.62,29.46,2,0,49,0.95
2013-9-9,52.2,24.4,44.8,49.9,23.8,44.5,99,48,92,29.82,29.62,0,0,2,0.11
2013-9-10,56.7,5.1,56.7,45.8,4.1,45.8,67,6,67,29.68,29.68,2,0,2,0.00
2013-9-11,56.7,50.2,44.6,49.3,46.9,41.6,99,89,67,29.80,29.56,4,1,49,0.61
2013-9-12,65.8,50.1,39.2,48.7,44.8,38.9,99,84,48,29.95,29.80,4,1,8,0.01
2013-9-13,52.2,46.5,41.0,48.9,44.8,40.1,99,94,82,29.95,29.84,2,0,4,0.04
2013-9-14,59.2,47.8,34.0,46.8,41.7,31.4,99,82,40,30.09,29.94,4,0,9,0.11
2013-9-15,63.3,40.9,27.5,39.5,31.1,26.8,98,73,26,30.14,29.98,3,0,7,0.00
2013-9-16,59.5,42.8,31.6,29.0,26.4,22.5,79,55,26,29.98,29.70,7,2,17,0.00
2013-9-17,43.7,36.1,29.5,26.7,23.6,20.7,73,61,45,29.70,29.62,5,2,8,0.00
2013-9-18,36.0,32.3,29.1,31.2,28.7,26.3,95,87,73,29.74,29.65,2,0,6,0.82
2013-9-19,45.9,32.6,26.1,31.7,27.0,25.1,97,81,52,29.73,29.61,4,0,8,0.00
2013-9-20,40.6,29.4,21.2,29.6,24.7,19.5,96,83,58,29.62,29.21,4,0,7,0.01
2013-9-21,42.6,29.4,21.9,25.5,20.5,17.4,84,70,39,29.25,29.14,3,1,6,0.01
2013-9-22,33.3,29.7,27.0,28.9,25.0,19.8,96,83,68,29.53,29.24,3,0,5,0.01
2013-9-23,43.3,29.1,19.9,30.4,24.0,18.9,96,82,52,29.89,29.53,2,0,4,0.08
2013-9-24,45.3,33.7,27.5,25.8,23.4,17.2,85,67,35,30.03,29.75,6,1,10,0.00
2013-9-25,60.1,44.6,35.4,36.4,31.4,23.3,78,61,36,29.74,29.35,4,1,8,0.01
2013-9-26,46.2,40.0,32.9,41.1,36.1,31.1,94,86,73,29.65,29.32,2,0,4,0.02
2013-9-27,63.3,46.6,35.1,37.4,34.1,29.2,89,64,31,29.32,29.12,4,1,8,0.12
2013-9-28,51.3,39.6,32.9,38.2,34.2,29.5,94,81,55,29.33,29.24,3,0,7,0.17
2013-9-29,44.2,38.5,34.0,39.4,34.9,29.2,98,88,64,29.62,29.33,4,1,8,0.02
2013-9-30,39.7,36.9,32.7,29.6,27.6,25.9,77,69,60,29.84,29.62,4,1,8,0.00
2013-10-1,39.0,33.3,30.0,33.0,30.4,26.5,99,89,76,29.93,29.84,2,0,4,0.21
2013-10-2,52.9,38.4,31.6,35.5,31.8,29.3,93,78,45,29.93,29.83,3,0,4,0.01
2013-10-3,55.0,40.2,30.9,34.7,31.6,28.0,92,73,44,29.85,29.60,3,0,5,0.21
2013-10-4,40.3,34.2,27.0,33.6,30.1,25.9,96,85,75,29.85,29.59,4,0,8,0.00
2013-10-5,52.5,34.5,25.2,34.4,30.0,24.2,98,85,48,29.86,29.67,3,0,7,0.00
2013-10-6,48.7,36.1,32.0,33.4,30.5,28.3,93,81,51,29.71,29.64,2,0,5,0.00
2013-10-7,34.0,32.3,29.7,32.7,31.2,28.6,98,95,93,29.86,29.71,2,0,4,0.02
2013-10-8,49.1,41.7,29.1,34.4,30.5,25.8,98,65,53,29.73,28.96,4,1,12,0.01
2013-10-9,40.5,35.9,32.5,35.3,33.1,31.0,95,90,77,29.68,28.97,8,2,13,0.07
2013-10-10,46.0,32.5,26.4,31.4,28.5,25.2,96,86,55,29.71,29.61,4,0,6,0.01
2013-10-11,56.3,35.3,28.8,37.2,30.0,27.3,96,83,42,29.83,29.67,3,0,5,0.00
2013-10-12,54.0,42.4,28.9,33.7,31.3,27.2,96,66,46,29.81,29.67,3,1,5,0.00
2013-10-13,48.0,46.1,44.1,33.2,29.3,28.1,57,52,48,29.67,29.42,4,1,7,0.11
2013-10-14,48.4,37.2,31.1,41.6,34.6,30.3,98,90,65,29.92,29.69,3,0,4,0.02
2013-10-15,45.3,39.5,34.0,39.0,35.0,32.3,96,85,61,29.93,29.79,2,0,3,0.03
2013-10-16,54.7,47.7,41.7,43.5,38.3,35.3,90,70,55,30.06,29.87,4,0,9,0.01
2013-10-17,53.6,48.0,42.6,44.5,38.0,34.9,82,68,54,29.96,29.67,4,1,6,0.01
2013-10-18,57.0,46.6,39.9,36.9,33.1,29.7,80,60,37,29.68,29.54,6,1,11,0.00
2013-10-19,58.3,44.8,35.2,37.6,31.1,26.7,83,60,39,29.56,29.26,8,1,14,0.00
2013-10-20,47.8,39.4,31.8,32.9,30.6,11.6,90,72,25,29.89,29.57,4,0,8,0.00
2013-10-21,44.4,31.8,25.0,32.3,27.1,22.5,93,83,60,30.11,29.88,2,0,4,0.00
2013-10-22,41.5,28.9,22.8,29.2,23.7,20.1,93,81,54,30.18,30.10,3,0,5,0.00
2013-10-23,33.8,25.8,21.2,26.7,23.1,18.7,96,90,73,30.16,29.87,2,0,4,0.00
2013-10-24,35.8,27.0,17.2,25.9,21.7,15.6,97,82,53,29.98,29.67,2,0,4,0.00
2013-10-25,44.4,31.7,23.9,27.9,23.0,20.5,87,71,50,30.17,29.69,3,0,6,0.00
2013-10-26,33.4,24.9,19.9,25.7,21.7,18.0,94,88,72,30.51,30.18,3,0,4,0.00
2013-10-27,43.9,39.4,32.5,36.7,25.2,18.8,93,58,42,30.35,29.65,3,1,7,0.10
2013-10-28,52.3,42.9,37.9,39.4,37.5,34.4,96,82,58,29.64,28.99,5,1,8,0.03
2013-10-29,39.2,34.3,29.7,38.0,32.9,28.7,98,95,86,29.51,29.24,8,2,14,0.18
2013-10-30,32.0,27.5,24.3,29.3,26.5,23.5,99,96,89,29.48,29.18,0,0,0,0.55
2013-10-31,26.6,24.6,21.2,25.1,23.5,20.2,98,95,93,29.68,29.26,0,0,0,0.55
2013-11-1,26.2,24.5,23.5,24.9,23.1,22.0,97,94,88,30.10,29.68,0,0,0,0.04
2013-11-2,25.3,21.5,16.2,23.1,19.9,14.5,96,93,86,30.10,29.81,0,0,0,0.00
2013-11-3,30.6,24.0,16.7,27.7,22.2,15.3,96,93,87,29.84,29.62,0,0,0,0.59
2013-11-4,28.8,23.4,19.9,24.9,21.1,18.3,95,91,78,29.62,29.43,0,0,0,0.00
2013-11-5,23.5,19.5,15.6,21.3,16.9,13.5,93,90,85,30.21,29.52,0,0,0,0.00
2013-11-6,17.4,12.7,7.7,14.2,9.4,2.6,91,86,74,30.34,30.12,0,0,2,0.00
2013-11-7,14.9,10.9,2.3,6.4,3.7,-2.6,83,72,64,30.12,29.90,0,0,4,0.02
2013-11-8,11.7,4.2,-2.2,9.3,1.2,-5.2,90,86,83,30.23,30.00,0,0,0,0.00
2013-11-9,21.4,18.5,10.8,19.7,16.3,8.4,93,91,89,30.13,29.73,0,0,0,0.00
2013-11-10,28.9,25.5,21.4,28.0,24.0,19.7,98,94,90,29.90,29.72,0,0,0,0.00
2013-11-11,22.3,12.8,3.9,21.3,10.9,1.2,96,92,87,30.34,29.90,0,0,0,0.00
2013-11-12,10.6,4.8,-2.2,8.2,2.0,-5.2,90,87,84,30.35,30.06,0,0,0,0.00
2013-11-13,40.5,17.7,9.7,36.9,15.8,7.3,99,92,81,30.07,29.57,13,1,25,0.18
2013-11-14,45.3,29.9,17.6,39.5,24.9,10.4,96,82,71,30.08,29.56,13,4,58,1.16
2013-11-15,17.8,9.1,0.9,10.6,5.4,-2.1,89,85,72,30.17,30.05,7,0,14,0.00
2013-11-16,14.2,8.1,-6.7,11.8,5.3,-9.4,90,88,83,30.39,30.08,2,0,4,0.00
2013-11-17,0.5,-3.3,-9.0,-2.6,-6.3,-11.9,86,84,81,30.47,30.37,0,0,1,0.00
2013-11-18,8.1,-1.2,-3.3,1.8,-4.3,-6.2,85,84,75,30.38,29.95,0,0,2,1.16
2013-11-19,0.3,-5.7,-15.9,-2.8,-8.6,-18.6,85,83,78,30.21,30.14,0,0,0,0.00
2013-11-20,-15.2,-20.0,-23.8,-18.0,-22.7,-26.5,79,76,73,30.42,30.21,24,0,0,0.00
2013-11-21,5.9,-12.9,-21.5,2.6,-15.9,-24.4,86,78,74,30.35,29.57,0,0,0,1.16
2013-11-22,14.4,8.3,3.9,11.0,5.2,0.7,90,87,85,29.56,29.25,0,0,2,0.00
2013-11-23,6.4,2.2,-1.8,3.4,-1.0,-4.9,88,86,83,29.95,29.44,1,0,2,0.00
2013-11-24,18.0,12.2,3.9,15.3,9.5,0.7,91,89,86,30.05,29.94,0,0,1,0.00
2013-11-25,13.6,6.8,1.0,11.0,4.1,-1.9,90,88,85,30.10,29.96,0,0,1,0.00
2013-11-26,7.2,2.5,-2.7,4.1,-0.5,-5.7,88,86,84,30.10,29.98,0,0,1,0.00
2013-11-27,1.8,0.2,-1.8,-1.3,-3.0,-4.9,86,85,84,30.09,29.89,0,0,1,0.22
2013-11-28,0.0,-4.2,-8.5,-3.1,-7.3,-11.5,85,83,81,30.09,29.88,0,0,0,0.00
2013-11-29,4.1,-8.7,-11.9,0.6,-11.7,-14.9,85,81,79,30.39,29.59,0,0,0,1.38
2013-11-30,-8.9,-15.5,-20.0,-11.8,-18.3,-22.9,81,78,75,30.80,30.39,0,0,0,0.00
2013-12-1,-13.5,-17.4,-20.4,-16.6,-20.2,-23.2,78,76,75,30.84,30.78,0,0,0,0.00
2013-12-2,-0.9,-8.4,-16.4,-4.1,-11.4,-19.3,84,81,77,30.83,30.72,0,0,0,0.00
2013-12-3,7.7,3.7,-3.5,4.9,0.6,-6.6,88,86,83,30.76,30.58,0,0,0,0.00
2013-12-4,16.7,5.4,-0.4,14.5,2.5,-3.7,91,87,84,30.61,30.46,0,0,0,0.00
2013-12-5,22.1,16.3,11.3,19.6,13.6,8.6,91,89,84,30.49,30.42,0,0,0,0.01
2013-12-6,23.9,21.9,19.2,21.4,19.3,16.8,93,89,85,30.49,30.41,0,0,0,0.00
2013-12-7,32.0,26.1,23.7,29.4,24.0,20.4,98,92,85,30.42,30.29,0,0,0,0.00
2013-12-8,30.4,28.2,25.0,29.6,27.3,23.8,97,96,95,30.37,30.22,0,0,0,0.00
2013-12-9,30.0,27.9,23.5,29.0,26.9,22.6,96,96,96,30.26,30.14,0,0,0,0.00
2013-12-10,24.1,10.4,6.1,23.1,5.9,-1.1,96,82,70,30.41,30.14,4,0,9,0.00
2013-12-11,6.6,3.5,0.5,-1.0,-6.1,-9.5,71,61,56,30.38,30.11,11,4,21,0.00
2013-12-12,2.5,-0.2,-2.7,-8.5,-11.1,-13.8,69,55,51,30.11,29.88,15,7,34,0.30
2013-12-13,-0.8,-4.9,-9.9,-9.7,-13.0,-16.4,67,62,54,29.88,29.33,10,3,17,0.00
2013-12-14,3.2,-1.8,-4.5,-0.7,-5.9,-10.8,84,80,60,29.43,29.20,4,0,6,1.68
2013-12-15,-4.5,-10.1,-20.9,-8.4,-13.4,-23.7,80,79,75,30.28,29.43,2,0,4,0.00
2013-12-16,-20.0,-25.5,-29.2,-22.5,-28.2,-31.8,77,73,71,30.46,30.27,0,0,0,0.00
2013-12-17,-8.7,-17.4,-26.5,-11.6,-20.3,-29.2,81,76,72,30.46,30.41,0,0,0,0.00
2013-12-18,0.9,-5.4,-9.9,-2.5,-8.5,-12.9,85,82,80,30.42,29.87,0,0,0,0.00
2013-12-19,5.0,1.7,-3.3,1.8,-1.5,-6.4,87,85,83,29.88,29.79,0,0,0,0.00
2013-12-20,6.3,2.4,-1.8,3.2,-0.7,-4.9,87,86,84,29.83,29.69,0,0,0,0.00
2013-12-21,12.9,9.0,1.4,10.6,6.2,-1.6,90,88,86,29.73,29.63,0,0,0,0.00
2013-12-22,11.5,8.5,4.8,9.1,5.8,1.8,90,88,84,29.86,29.55,0,0,0,0.00
2013-12-23,6.4,0.8,-3.8,2.7,-2.7,-6.9,86,83,80,30.25,29.86,1,0,3,0.00
2013-12-24,-2.2,-10.2,-18.2,-5.2,-13.1,-20.9,84,81,77,30.28,30.09,0,0,1,0.00
2013-12-25,-14.3,-20.8,-26.5,-17.2,-23.5,-29.2,78,75,72,30.14,30.05,0,0,1,0.00
2013-12-26,-20.0,-24.7,-30.8,-22.9,-27.5,-33.7,75,73,69,30.20,30.11,0,0,1,0.00
2013-12-27,-13.5,-19.0,-21.6,-16.6,-21.8,-24.5,78,76,74,30.24,30.19,0,0,0,0.00
2013-12-28,4.3,-3.0,-15.7,1.0,-6.2,-18.7,86,83,77,30.21,30.06,0,0,1,0.00
2013-12-29,5.2,-0.8,-5.3,2.2,-3.9,-8.4,87,84,82,30.15,29.99,0,0,1,0.00
2013-12-30,2.7,-1.7,-4.9,-0.5,-4.9,-8.1,86,84,82,29.99,29.75,0,0,1,0.00
2013-12-31,11.8,2.4,-3.6,9.5,-0.7,-6.7,90,86,83,29.85,29.53,0,0,1,0.00
2014-1-1,21.0,15.5,5.7,19.6,13.6,2.7,94,92,87,29.54,29.29,0,0,1,0.00
2014-1-2,9.0,5.3,0.9,6.4,2.3,-2.2,89,87,85,30.13,29.54,0,0,1,0.00